• In Uzbekistan
  • List of Countries
  • For 7 days
  • Water Temperature
  • Weather Map
  • Weather Widgets
  • user-avatar
    Login

    Hourly Weather Karakol

    Today, 16 September, Monday

    Time Temperature Precipitation Wind Pressure Humidity
    00:00 +8°C° 0.1 mm 3 mps 608 mmHg 77%
    01:00 +8°C° 0.1 mm 3 mps 608 mmHg 76%
    02:00 +9°C° 0.1 mm 2 mps 608 mmHg 76%
    03:00 +8°C° 0 mm 2 mps 607 mmHg 75%
    04:00 +8°C° 0 mm 2 mps 607 mmHg 75%
    05:00 +7°C° 0 mm 2 mps 607 mmHg 75%
    06:00 +8°C° 0.7 mm 2 mps 607 mmHg 79%
    07:00 +8°C° 0.7 mm 2 mps 608 mmHg 82%
    08:00 +8°C° 0.7 mm 2 mps 608 mmHg 86%
    09:00 +9°C° 0.5 mm 2 mps 608 mmHg 82%
    10:00 +10°C° 0.5 mm 2 mps 608 mmHg 78%
    11:00 +12°C° 0 mm 1 mps 609 mmHg 70%
    12:00 +13°C° 0.4 mm 2 mps 609 mmHg 68%
    13:00 +13°C° 0.4 mm 2 mps 608 mmHg 66%
    14:00 +13°C° 0.4 mm 2 mps 608 mmHg 64%
    15:00 +13°C° 0.4 mm 2 mps 608 mmHg 65%
    16:00 +12°C° 0.4 mm 1 mps 608 mmHg 66%
    17:00 +12°C° 0.4 mm 1 mps 608 mmHg 68%
    18:00 +11°C° 0.3 mm 1 mps 608 mmHg 69%
    19:00 +9°C° 0.3 mm 2 mps 608 mmHg 70%
    20:00 +7°C° 0.3 mm 2 mps 608 mmHg 72%
    21:00 +7°C° 0 mm 2 mps 608 mmHg 70%
    22:00 +7°C° 0 mm 2 mps 608 mmHg 67%
    23:00 +7°C° 0 mm 2 mps 608 mmHg 65%

    Tomorrow, 17 September, Tuesday

    Time Temperature Precipitation Wind Pressure Humidity
    00:00 +8°C° 0 mm 1 mps 608 mmHg 64%
    01:00 +8°C° 0 mm 1 mps 608 mmHg 63%
    02:00 +8°C° 0 mm 1 mps 608 mmHg 62%
    03:00 +8°C° 0.1 mm 1 mps 608 mmHg 66%
    04:00 +8°C° 0.1 mm 1 mps 608 mmHg 70%
    05:00 +7°C° 0.1 mm 1 mps 609 mmHg 74%
    06:00 +8°C° 0 mm 1 mps 609 mmHg 71%
    07:00 +9°C° 0 mm 1 mps 610 mmHg 68%
    08:00 +9°C° 0 mm 2 mps 611 mmHg 65%
    09:00 +10°C° 0.1 mm 2 mps 611 mmHg 61%
    10:00 +12°C° 0.1 mm 2 mps 612 mmHg 57%
    11:00 +14°C° 0.1 mm 2 mps 612 mmHg 53%
    12:00 +14°C° 0.2 mm 2 mps 612 mmHg 51%
    13:00 +14°C° 0.2 mm 2 mps 612 mmHg 49%
    14:00 +15°C° 0.2 mm 2 mps 612 mmHg 48%
    15:00 +14°C° 0.1 mm 2 mps 612 mmHg 50%
    16:00 +14°C° 0.1 mm 2 mps 612 mmHg 53%
    17:00 +13°C° 0.1 mm 2 mps 612 mmHg 56%
    18:00 +12°C° 0 mm 2 mps 612 mmHg 59%
    19:00 +9°C° 0 mm 2 mps 612 mmHg 62%
    20:00 +8°C° 0 mm 2 mps 611 mmHg 65%
    21:00 +8°C° 0 mm 2 mps 611 mmHg 61%
    22:00 +8°C° 0 mm 2 mps 611 mmHg 56%
    23:00 +7°C° 0 mm 2 mps 611 mmHg 52%

    Day after tomorrow, 18 September, Wednesday

    Time Temperature Precipitation Wind Pressure Humidity
    00:00 +7°C° 0 mm 2 mps 611 mmHg 50%
    01:00 +7°C° 0 mm 2 mps 610 mmHg 48%
    02:00 +7°C° 0 mm 2 mps 610 mmHg 46%
    03:00 +7°C° 0 mm 3 mps 610 mmHg 47%
    04:00 +7°C° 0 mm 3 mps 610 mmHg 47%
    05:00 +7°C° 0 mm 3 mps 610 mmHg 47%
    06:00 +8°C° 0 mm 2 mps 611 mmHg 45%
    07:00 +10°C° 0 mm 2 mps 611 mmHg 43%
    08:00 +13°C° 0 mm 2 mps 612 mmHg 40%
    09:00 +14°C° 0 mm 2 mps 612 mmHg 38%
    10:00 +15°C° 0 mm 2 mps 612 mmHg 37%
    11:00 +17°C° 0 mm 3 mps 612 mmHg 35%
    12:00 +17°C° 0 mm 3 mps 612 mmHg 35%
    13:00 +18°C° 0 mm 3 mps 611 mmHg 35%
    14:00 +18°C° 0 mm 3 mps 611 mmHg 35%
    15:00 +17°C° 0 mm 2 mps 611 mmHg 39%
    16:00 +16°C° 0 mm 2 mps 610 mmHg 42%
    17:00 +16°C° 0 mm 2 mps 610 mmHg 46%
    18:00 +14°C° 0 mm 2 mps 610 mmHg 46%
    19:00 +13°C° 0 mm 2 mps 610 mmHg 46%
    20:00 +11°C° 0 mm 3 mps 609 mmHg 46%
    21:00 +11°C° 0 mm 3 mps 609 mmHg 46%
    22:00 +11°C° 0 mm 3 mps 609 mmHg 45%
    23:00 +11°C° 0 mm 3 mps 609 mmHg 45%

    19 September, Thursday

    Time Temperature Precipitation Wind Pressure Humidity
    00:00 +10°C° 0 mm 3 mps 609 mmHg 43%
    01:00 +10°C° 0 mm 3 mps 609 mmHg 42%
    02:00 +10°C° 0 mm 2 mps 608 mmHg 41%
    03:00 +10°C° 0 mm 2 mps 609 mmHg 40%
    04:00 +10°C° 0 mm 2 mps 609 mmHg 39%
    05:00 +11°C° 0 mm 1 mps 609 mmHg 38%
    06:00 +13°C° 0 mm 1 mps 610 mmHg 37%
    07:00 +15°C° 0 mm 1 mps 611 mmHg 35%
    08:00 +16°C° 0 mm 1 mps 611 mmHg 34%
    09:00 +18°C° 0 mm 1 mps 612 mmHg 34%
    10:00 +18°C° 0 mm 2 mps 612 mmHg 34%
    11:00 +19°C° 0 mm 2 mps 612 mmHg 34%
    12:00 +20°C° 0.1 mm 2 mps 612 mmHg 34%
    13:00 +20°C° 0.1 mm 3 mps 612 mmHg 35%
    14:00 +20°C° 0.1 mm 3 mps 612 mmHg 36%
    15:00 +19°C° 0.1 mm 2 mps 612 mmHg 40%
    16:00 +19°C° 0.1 mm 1 mps 612 mmHg 45%
    17:00 +18°C° 0.1 mm 1 mps 612 mmHg 50%
    18:00 +16°C° 0 mm 1 mps 612 mmHg 50%
    19:00 +15°C° 0 mm 2 mps 612 mmHg 50%
    20:00 +14°C° 0 mm 2 mps 611 mmHg 49%
    21:00 +13°C° 0 mm 2 mps 611 mmHg 47%
    22:00 +13°C° 0 mm 2 mps 611 mmHg 45%
    23:00 +13°C° 0 mm 2 mps 611 mmHg 43%

    20 September, Friday

    Time Temperature Precipitation Wind Pressure Humidity
    00:00 +13°C° 0 mm 2 mps 610 mmHg 42%
    01:00 +13°C° 0 mm 2 mps 610 mmHg 40%
    02:00 +12°C° 0 mm 2 mps 610 mmHg 39%
    03:00 +12°C° 0 mm 2 mps 610 mmHg 39%
    04:00 +12°C° 0 mm 2 mps 610 mmHg 39%
    05:00 +12°C° 0 mm 2 mps 610 mmHg 39%
    06:00 +14°C° 0 mm 1 mps 610 mmHg 37%
    07:00 +15°C° 0 mm 1 mps 611 mmHg 35%
    08:00 +18°C° 0 mm 1 mps 612 mmHg 33%
    09:00 +19°C° 0 mm 1 mps 612 mmHg 32%
    10:00 +19°C° 0 mm 2 mps 612 mmHg 31%
    11:00 +20°C° 0 mm 2 mps 613 mmHg 31%
    12:00 +21°C° 0 mm 2 mps 612 mmHg 31%
    13:00 +21°C° 0 mm 3 mps 612 mmHg 32%
    14:00 +21°C° 0 mm 3 mps 612 mmHg 33%
    15:00 +20°C° 0 mm 2 mps 611 mmHg 38%
    16:00 +19°C° 0 mm 2 mps 611 mmHg 43%
    17:00 +19°C° 0 mm 1 mps 611 mmHg 48%
    18:00 +16°C° 0 mm 1 mps 611 mmHg 49%
    19:00 +15°C° 0 mm 1 mps 611 mmHg 51%
    20:00 +14°C° 0 mm 1 mps 611 mmHg 52%
    21:00 +14°C° 0 mm 1 mps 611 mmHg 50%
    22:00 +14°C° 0 mm 2 mps 611 mmHg 48%
    23:00 +13°C° 0 mm 2 mps 611 mmHg 46%

    21 September, Saturday

    Time Temperature Precipitation Wind Pressure Humidity
    00:00 +13°C° 0 mm 2 mps 610 mmHg 45%
    01:00 +13°C° 0 mm 2 mps 610 mmHg 44%
    02:00 +13°C° 0 mm 2 mps 610 mmHg 43%
    03:00 +13°C° 0 mm 2 mps 610 mmHg 42%
    04:00 +13°C° 0 mm 2 mps 610 mmHg 42%
    05:00 +13°C° 0 mm 2 mps 610 mmHg 41%
    06:00 +14°C° 0 mm 2 mps 611 mmHg 38%
    07:00 +16°C° 0 mm 1 mps 612 mmHg 36%
    08:00 +19°C° 0 mm 1 mps 612 mmHg 33%
    09:00 +20°C° 0 mm 1 mps 612 mmHg 32%
    10:00 +20°C° 0 mm 2 mps 613 mmHg 30%
    11:00 +21°C° 0 mm 2 mps 613 mmHg 29%
    12:00 +21°C° 0 mm 2 mps 612 mmHg 29%
    13:00 +22°C° 0 mm 3 mps 612 mmHg 29%
    14:00 +22°C° 0 mm 3 mps 612 mmHg 30%
    15:00 +21°C° 0 mm 2 mps 611 mmHg 34%
    16:00 +20°C° 0 mm 2 mps 611 mmHg 39%
    17:00 +19°C° 0 mm 1 mps 610 mmHg 44%
    18:00 +18°C° 0 mm 1 mps 610 mmHg 43%
    19:00 +16°C° 0 mm 2 mps 610 mmHg 42%
    20:00 +15°C° 0 mm 2 mps 610 mmHg 41%
    21:00 +15°C° 0 mm 2 mps 609 mmHg 41%
    22:00 +13°C° 0 mm 3 mps 609 mmHg 42%
    23:00 +13°C° 0 mm 3 mps 609 mmHg 43%
    Show more